Back to catalog

CZ-6A R/B

AlivePO
NORAD 57831·ROCKET BODY·🇨🇳 China

Launched Sep 10, 2023 from Taiyuan Satellite Launch Center

Loading…

Next Passes (next 24 hours)

TLE

FreshSource: Space-Track

Epoch: Sep 14, 2026, 06:44 UTC

1 57831U 23139B   26257.28105697  .00000293  00000-0  11084-3 0  9993
2 57831  85.9920 207.6399 0011900 340.0036  20.0688 14.27783912156901

Track CZ-6A R/B in real time with AllMySat

Download on the App Store